{"data":{"norad_id":63405,"epoch":"2026-09-20T19:40:15.925728Z","epoch_age_seconds":131159,"freshness":"FRESH","line1":"1 63405U 25065G   26263.81962877  .00012340  00000+0  45706-3 0  9997","line2":"2 63405  43.0044  84.9911 0000661 301.6116  58.4671 15.27588748 82688","mean_motion":15.27588748,"eccentricity":6.61e-5,"inclination_deg":43.0044,"raan_deg":84.9911,"arg_perigee_deg":301.6116,"mean_anomaly_deg":58.4671,"bstar":0.00045706,"rev_number":8268,"period_min":94.266208878883,"perigee_km":482.56937883609,"apogee_km":483.47642417507,"semimajor_km":6861.1599015056,"source":"CELESTRAK","updated_at":"2026-09-21T09:00:34.978947Z"}}